Weather History for Camarillo, CA

Change the Weather History Date:

Friday, December 7, 2012

  Actual Average Record
Temperature  
Mean Temperature 56 °F 54 °F  
Max Temperature 66 °F 66 °F 85 °F (1979)
Min Temperature 46 °F 42 °F 30 °F (1978)
Degree Days  
Heating Degree Days 9 11  
Month to date heating degree days 31 74  
Since 1 July heating degree days 258 406  
Cooling Degree Days 0 0  
Month to date cooling degree days 0 0  
Year to date cooling degree days 387 330  
Growing Degree Days 5 (Base 50)    
Moisture  
Dew Point 51 °F    
Average Humidity 83    
Maximum Humidity 93    
Minimum Humidity 72    
Precipitation  
Precipitation 0.00 in 0.05 in 2.00 in (1992)
Month to date precipitation 0.45 0.27  
Year to date precipitation 7.25 13.43  
Since 1 July precipitation 1.57 2.45  
Sea Level Pressure  
Sea Level Pressure 29.96 in    
Wind  
Wind Speed 3 mph (SSW)    
Max Wind Speed 10 mph    
Max Gust Speed 14 mph    
Visibility 8 miles    
Events      
T = Trace of Precipitation, MM = Missing Value Source: NWS Daily Summary

Daily Weather History Graph

Daily Weather History Graph

Search for Another Location

Airport:

Trip Planner

Search our weather history database for the weather conditions in past years. The results will help you decide how hot, cold, wet, or windy it might be!

Date:

Astronomy

Dec. 07, 2012 Rise Set
Actual Time 6:49 AM PST 4:46 PM PST
Civil Twilight 6:21 AM PST 5:14 PM PST
Nautical Twilight 5:50 AM PST 5:45 PM PST
Astronomical Twilight 5:20 AM PST 6:15 PM PST
Moon 12:28 AM PST (12/7) 12:33 PM PST (12/7)
Length of Visible Light 10h 52m
Length of Day
9h 56m
Last Quarter, 37% of the Moon is Illuminated
Dec 7
Last Quarter
Dec 13
New
Dec 19
First Quarter
Dec 28
Full
Jan 4
Last Quarter

Hourly Weather History & Observations

Time (PST) Temp. Dew Point Humidity Pressure Visibility Wind Dir Wind Speed Gust Speed Precip Events Conditions
12:55 AM 53.1 °F 50.0 °F 89% 29.95 in 6.0 mi Calm Calm - N/A   Clear
1:55 AM 50.0 °F 46.9 °F 89% 29.94 in 7.0 mi ENE 4.6 mph - N/A   Clear
2:55 AM 48.9 °F 46.0 °F 90% 29.94 in 10.0 mi NE 3.5 mph - N/A   Clear
3:55 AM 50.0 °F 46.0 °F 86% 29.94 in 10.0 mi Calm Calm - 0.01 in   Clear
4:55 AM 48.0 °F 44.1 °F 86% 29.95 in 10.0 mi Calm Calm - N/A   Partly Cloudy
5:55 AM 48.0 °F 44.1 °F 86% 29.96 in 10.0 mi Calm Calm - N/A   Clear
6:55 AM 46.9 °F 43.0 °F 86% 29.97 in 10.0 mi WNW 3.5 mph - N/A   Clear
7:55 AM 50.0 °F 45.0 °F 83% 29.98 in 10.0 mi Calm Calm - N/A   Clear
8:55 AM 55.9 °F 50.0 °F 80% 30.00 in 10.0 mi Calm Calm - N/A   Clear
9:55 AM 60.1 °F 52.0 °F 75% 30.00 in 10.0 mi Calm Calm - N/A   Clear
10:55 AM 62.1 °F 54.0 °F 75% 29.99 in 8.0 mi SSW 5.8 mph - N/A   Clear
11:55 AM 64.9 °F 55.0 °F 70% 29.98 in 6.0 mi SW 6.9 mph - N/A   Haze
12:55 PM 64.9 °F 55.0 °F 70% 29.96 in 6.0 mi SSW 10.4 mph - N/A   Haze
1:55 PM 64.9 °F 55.9 °F 73% 29.94 in 7.0 mi SSW 4.6 mph - N/A   Clear
2:55 PM 64.9 °F 55.9 °F 73% 29.94 in 7.0 mi SSW 8.1 mph - N/A   Clear
3:55 PM 64.0 °F 55.9 °F 75% 29.95 in 8.0 mi South 5.8 mph - N/A   Clear
4:55 PM 61.0 °F 55.9 °F 83% 29.95 in 5.0 mi Calm Calm - N/A   Haze
5:55 PM 59.0 °F 55.0 °F 87% 29.95 in 7.0 mi NE 3.5 mph - N/A   Clear
6:55 PM 57.9 °F 53.1 °F 84% 29.96 in 7.0 mi NNE 4.6 mph - N/A   Clear
7:55 PM 55.9 °F 52.0 °F 87% 29.96 in 8.0 mi Calm Calm - N/A   Clear
8:55 PM 54.0 °F 50.0 °F 86% 29.97 in 7.0 mi Calm Calm - N/A   Clear
9:55 PM 53.1 °F 48.9 °F 86% 29.96 in 7.0 mi Calm Calm - N/A   Clear
10:55 PM 54.0 °F 48.0 °F 80% 29.96 in 10.0 mi Calm Calm - N/A   Clear